www.pogodaiklimat.ru

Погода и климат >> Архив погоды >> Россия >> Кемеровская область >> Тисуль


АРХИВ ПОГОДЫ в Тисуле

Время (UTC), дата Ветер
(напр.,м/с)
 
Видим.   Явления Облачность Т
(С)
Тd
(С)
f
(%)
Тe
(С)
Тes
(С)
Комфортность P
(гПа)
Po
(гПа)
Тmin
(С)
Tmax
(С)
R
(мм)
R24
(мм)
S
(см)
09 13.04 З 9-18
{19}
20 км 10/4 1000 м
[Sc Ac trans Cs]
+17.6 -9.1 15 +16 +17 1007.1 982.5
12 13.04 З 8-13
{18}
20 км 9/4 1000 м
[Sc Cs]
+15.9 -10.8 15 +14 +15 1007.5 982.7 +17.9
15 13.04 ЮЗ 7-11
{14}
20 км 9/0
[Ac As]
+13.7 -5.1 27 +12 +12 1007.3 982.3
18 13.04 СЗ 2
{13}
20 км 10/10 1020 м
[Sc]
+4.9 +0.4 73 +2 +2 1010.4 984.6
21 13.04 С 3 20 км 10/10 1000 м
[Sc]
+2.0 -1.7 76 -2 -2 1012.4 986.3
00 14.04 З 1 4000 м слаб. ливневой снег 10/10 570 м
[Cb calv]
-0.4 -1.5 92 -3 -3 1013.7 987.3 -0.4 0.8 1
03 14.04 З 2 20 км {ливн. осадки} 10/3 1000 м
[Sc Ac As Cs]
+3.3 -2.5 66 +1 +3 1013.8 987.7 -0.5
06 14.04 СЗ 4 20 км {ливн. осадки} 10/10 1140 м
[Cb calv]
+3.7 -4.6 55 -0 -0 1014.2 988.2
09 14.04 СЗ 3 20 км 9/8 600 м
[Cb calv Ci fib]
+6.1 -5.0 45 +4 +5 1014.1 988.3
12 14.04 СЗ 2 20 км 9/6 1000 м
[Sc Ac trans Ci sp]
+4.9 -7.7 40 +3 +3 1014.2 988.3 +6.2 0.0
15 14.04 штиль 0 20 км 10/0
[Ac und]
+1.5 -7.8 50 +1 +1 1014.8 988.6
18 14.04 С 1 4000 м слаб. ливневой снег 10/10 500 м
[Cb cap]
-1.1 -2.5 90 -3 -3 1015.4 988.9
21 14.04 З 1 20 км в посл. час ливневой снег 10/6 600 м
[Cb cap Ac und]
-2.6 -3.8 91 -5 -5 1014.9 988.2
00 15.04 СЗ 1 20 км {ливн. осадки} 8/1 1000 м
[Sc Ac trans Ci fib]
-3.8 -7.3 77 -6 -6 1016.5 989.7 -4.1 2 2
03 15.04 СЗ 2 20 км 9/8 1110 м
[Sc Ci fib]
-2.3 -9.5 58 -6 -5 1016.9 990.2
06 15.04 СЗ 2 20 км 8/8 600 м
[Cu med, cong Ci fib]
+0.3 -10.2 45 -2 -0 1016.2 989.8
09 15.04 С 3 20 км 9/4 600 м
[Cu hum Ci]
+2.6 -12.3 32 -0 +3 1014.3 988.2
12 15.04 С 2 20 км 10/0
[Cs]
+1.3 -14.6 29 -1 -0 1012.5 986.3 +3.2
15 15.04 СВ 1 20 км 10/0
[Cs]
-1.5 -12.3 44 -3 -3 1010.6 984.2
00 16.04 штиль 0 20 км 5/0
[Cs]
-8.3 -13.4 67 -9 -8 1008.2 981.2 -8.3
03 16.04 В 1 20 км 1/0
[Ci fib]
+0.1 -13.7 35 -1 +7 1008.0 981.8
06 16.04 ЮЗ 1 20 км ясно +3.7 -15.4 23 +3 +17 опасность
простуды
1008.6 982.7
09 16.04 СЗ 2 20 км ясно +6.0 -15.7 19 +5 +12 1008.8 983.1
12 16.04 СЗ 2 20 км ясно +5.0 -15.6 21 +4 +4 1009.9 984.1 +6.3
15 16.04 Ю 2 20 км ясно -2.0 -14.1 39 -5 -5 1012.1 985.6
18 16.04 Ю 3 20 км ясно -2.9 -13.6 43 -7 -7 1012.7 986.0
21 16.04 ЮЗ 4 20 км 3/0
[Ci fib]
-1.5 -9.3 55 -7 -7 1013.2 986.7
00 17.04 Ю 4
{11}
20 км 9/0
[Ac trans Ci fib]
-0.7 -7.1 62 -6 -6 1013.1 986.7 -4.0
03 17.04 ЮЗ 5
{11}
20 км 8/0
[Ci sp]
+4.5 -11.1 31 +1 +4 1011.9 986.0
06 17.04 ЮЗ 8-13
{15}
20 км 9/6 1000 м
[Cu hum Cs]
+5.8 -9.4 33 +1 +2 1011.2 985.4
09 17.04 ЮЗ 7-11
{13}
20 км 9/8 600 м
[Cu hum Ac trans Ci fib]
+6.0 -8.9 33 +2 +2 1009.3 983.6
12 17.04 ЮЗ 7-11
{13}
20 км 9/1 600 м
[Sc diur, vesp Ac trans Ci fib]
+5.6 -9.2 34 +1 +1 1007.6 981.9 +7.0
15 17.04 Ю 5
{11}
20 км 9/3 1000 м
[Sc Ac As Ci sp]
+4.0 -7.2 44 -0 -0 1005.7 979.9
18 17.04 Ю 4
{14}
20 км 4/3 1000 м
[Sc Ci sp]
+3.1 -6.8 48 -1 -1 1002.5 976.7
00 18.04 СЗ 1 20 км 10/6 1000 м
[Sc Ac und]
+2.7 -4.4 59 +2 +2 991.4 965.9 +1.8
03 18.04 ЮЗ 9-15
{17}
20 км в посл. час ливневой дождь 10/8 600 м
[Cb cap Ac und]
+3.4 -2.6 65 -3 -3 990.9 965.4
06 18.04 З 9-17
{19}
20 км {ливн. осадки} 10/8 600 м
[Cb cap Ac und]
-0.4 -7.7 58 -8 -8 998.7 972.7
09 18.04 З 11-19
{19}
10 км слаб. ливневой снег 10/8 600 м
[Cb cap Ac As Cs]
-2.2 -10.3 54 -11 -11 1006.9 980.5
12 18.04 З 8-13
{19}
20 км в посл. час ливневой снег 6/6 600 м
[Cb cap]
-5.5 -14.9 47 -14 -14 1012.7 985.8 +7.4 0.4
15 18.04 З 8-14
{18}
20 км {ливн. осадки} 3/1 600 м
[Cb calv Ci fib]
-8.2 -15.5 56 -17 -17 1016.1 988.9
18 18.04 З 9-13
{19}
10 км слаб. ливневой снег 9/9 360 м
[Cb calv]
-7.2 -12.2 67 -17 -17 1018.8 991.6
21 18.04 З 9-14
{16}
20 км {ливн. осадки} 10/0
[Ac trans Cs]
-6.1 -11.6 65 -15 -15 1021.9 994.7
00 19.04 ЮЗ 8-14
{17}
20 км {ливн. осадки} 10/1 300 м
[St Ac und]
-6.0 -11.8 64 -15 -15 1025.3 998.1 -8.4 0.0
03 19.04 ЮЗ 8-13
{16}
20 км 1/1 600 м
[Cu hum]
-2.4 -14.1 40 -10 -9 1027.0 1000.0
06 19.04 З 7-11
{16}
20 км 1/1 600 м
[Cu hum]
+0.3 -16.2 28 -6 -3 1027.2 1000.5
09 19.04 ЮЗ 7-12
{13}
20 км 3/3 600 м
[Cu hum]
+2.7 -14.7 26 -2 -1 1025.6 999.1
12 19.04 З 5
{12}
20 км 9/0
[Ac lent Ci fib]
+1.3 -13.8 31 -3 -3 1024.4 997.8 +2.8
00 20.04 штиль 0 20 км 3/0
[Ci fib]
-6.3 -11.8 65 -7 -6 1018.3 991.2 -8.8

 

Местоположение метеостанции Тисуль (Кемеровская область, Россия): широта 55.75 долгота 88.30 высота над уровнем моря 211 м.

В архиве по умолчанию представлена погода в Тисуле за последнюю неделю. Архивные данные за месяц целиком и за предыдущие месяцы, начиная с января 2011 года, Вы можете получить, выбрав интересующий диапазон дат из раскрывающегося списка и нажав кнопку "Ввод!".


*Определитесь, кто Вы:
робот инопланетянин человек

Внимание! Время в таблицах - всемирное. Для получения местного времени необходимо прибавить поправку, которая равна 7 ч.

Смотрите также архив погоды в соседних городах и на ближайших метеорологических станциях:

Погода в Тяжине (Кемеровская область, Россия) (43 км)
Погода в Мариинске (Кемеровская область, Россия) (61 км)
Погода в Шарыпово (Красноярский край, Россия) (62 км)
Погода в Центральном Руднике (Кемеровская область, Россия) (74 км)
Погода в Боготоле (Красноярский край, Россия) (96 км)
Погода в Тюхтете (Красноярский край, Россия) (107 км)
Погода в Ужуре (Красноярский край, Россия) (108 км)
Погода в Ненастной (Хакасия, Россия) (116 км)
Погода в Яе (Кемеровская область, Россия) (124 км)
Погода в Крапивино (Кемеровская область, Россия) (125 км)

Пояснения к столбцам:

Ветер - указаны скорость ветра в м/с - средняя за 10 мин, порывы в срок и между сроками (в фигурных скобках) и направление, откуда дует ветер: С - северный, СВ - северо-восточный, В - восточный, ЮВ - юго-восточный, Ю - южный, ЮЗ - юго-западный, З - западный, СЗ - северо-западный.
Видимость - горизонтальная дальность видимости в метрах или километрах. При видимости от 1 до 10 км при отсутствии осадков обычно наблюдается дымка, при ухудшении видимости до 1 км и менее - туман. В сухую погоду видимость может ухудшаться дымом, пылью или мглою.
Явления - указаны атмосферные явления, наблюдавшиеся в срок или в последний час перед сроком; фигурными скобками обозначены явления, наблюдавшиеся между сроками (за 1-3 часа до срока); квадратными скобками обозначены град или гололедные отложения с указанием их диаметра в мм.
Облачность - указаны через наклонную черту общая и нижняя облачность в баллах и высота нижней границы облаков в метрах; квадратными скобками обозначены формы облаков: Ci - перистые, Cs - перисто-слоистые, Cc - перисто-кучевые, Ac - высококучевые, As - высокослоистые, Sc - слоисто-кучевые, Ns - слоисто-дождевые, Cu - кучевые, Cb - кучево-дождевые. Подробнее классификацию облаков см. в Атласе облаков (PDF).
T - Температура воздуха - температура, измеренная на высоте 2 м над землей.
Td - Температура точки росы - температура, при понижении до которой содержащийся в воздухе водяной пар достигнет насыщения.
f - Относительная влажность воздуха - влажноcть воздуха, измеренная на высоте 2 м над землей.
Te - Эффективная температура - температура, которую ощущает одетый по сезону человек в тени. Характеристика душности погоды. При расчете учитывается влияние влажности воздуха и скорости ветра на теплоощущения человека.
Tes - Эффективная температура на солнце - температура, которую ощущает человек, с поправкой на солнечный нагрев. Характеристика знойности погоды. Зависит от высоты солнца над горизонтом, облачности и скорости ветра. Ночью, в пасмурную погоду, а также при ветре 12 м/с и более поправка равна нулю.
P - Атмосферное давление - приведенное к уровню моря атмосферное давление.
Po - Атмосферное давление - измеренное на уровне метеостанции атмосферное давление.
Tmin - Минимальная температура - минимум температуры воздуха на высоте 2 м над землей.
Tmax - Максимальная температура - максимум температуры воздуха на высоте 2 м над землей.
R - Количество осадков - Количество выпавших осадков за период времени, мм. При наведении курсора мыши на число - период времени, за который выпало указанное количество осадков.
R24 - Количество осадков - Количество выпавших осадков за 24 часа, мм.
S - Снежный покров - Высота снежного покрова, см. При наведении курсора мыши на число - состояние снежного покрова и степень покрытия местности в баллах.